[Iaude] MPEC P22: 2008 EE9 [a=1.32,e=0.53,i=10.0,H=22.30]

mpec at cfa.harvard.edu mpec at cfa.harvard.edu
Fri Aug 2 03:37:31 EDT 2024


M.P.E.C. 2024-P22                                Issued 2024 August 2, 07:36 UT

     The Minor Planet Electronic Circulars contain information on unusual
         minor planets, routine data on comets and natural satellites,
         and occasional editorial announcements.  They are published
    on behalf of Division F of the International Astronomical Union by the
          Minor Planet Center, Smithsonian Astrophysical Observatory,
                          Cambridge, MA 02138, U.S.A.
			  
             Prepared using the Tamkin Foundation Computer Network

                              MPC at CFA.HARVARD.EDU
            URL https://www.minorplanetcenter.net/    ISSN 1523-6714

                                    2008 EE9                                    


                           Revision to MPEC 2008-E81                            

Additional Observations:
     K08E09E  C2024 08 01.47323123 06 45.846+26 55 21.39         21.70wXEP022F52
     K08E09E  C2024 08 01.48436323 06 47.752+26 55 58.41         21.81wXEP022F52
     K08E09E  C2024 08 01.49548623 06 49.687+26 56 36.26         21.85wXEP022F52
     K08E09E KC2024 08 02.28925623 09 20.83 +27 41 30.1          22.1 GVEP022H21
     K08E09E KC2024 08 02.29754223 09 22.35 +27 41 58.8          21.7 GVEP022H21
     K08E09E KC2024 08 02.30052923 09 22.91 +27 42 09.1          22.1 GVEP022H21

Observer details:
F52 Pan-STARRS 2, Haleakala.  Observers J. Herman, T. Lowe, P. Minguez, A.
    Schultz, I. Smith.  Measurers K. Chambers, T. de Boer, J. Fairlamb, H.
    Gao, M. Huber, C.-C. Lin, E. Magnier, Y. Ramanjooloo, R. Wainscoat, R.
    Weryk.  1.8-m Ritchey-Chretien + CCD.
H21 Astronomical Research Observatory, Westfield.  Observer R. Holmes.
    Measurers T. Linder, R. Holmes.  1.3-m f/4.0 astrograph + CCD.

First and last observations above in comparison with prediction:
Residuals in seconds of arc (or zero decimals in degrees), reference and Delta-T
240801 F52   10+    2+    240802 H21   10+    2+    MPO845251   +3.14 days

Orbital elements:
2008 EE9                                                 Earth MOID = 0.0467 AU
Epoch 2024 Oct. 17.0 TT = JDT 2460600.5                 MPC                     
M 359.93331              (2000.0)            P               Q                  
n   0.64656418     Peri.  249.75932     +0.33836475     -0.94101396             
a   1.3245295      Node   180.47048     +0.91500828     +0.32936564             
e   0.5276962      Incl.    9.96722     +0.21970240     +0.07753063             
P   1.52           H   22.30          G   0.15           U   1                  
Residuals in seconds of arc
080308 E12  0.2+  0.3+    080310 474  0.3+  0.2+    080324 H55  0.1+  0.2-
080308 E12  0.1-  0.4+    080310 E12  0.0   0.0     080324 H55  0.2-  0.0
080308 E12  0.4-  0.2-    080310 E12  0.0   0.0     080328 291  0.2-  0.1-
080308 E12  0.0   0.5+    080310 E12  0.2+  0.3-    080328 291  0.1-  0.1-
080308 E12  0.5-  0.4+    080310 E12  0.2+  0.1-    080328 291  0.3-  0.3-
080308 E12  1.0-  0.2+    080310 E12  0.1+  0.3-    080328 291  0.1-  0.4-
080309 474  0.3+  0.8+    080310 E12  0.1+  0.2-    080328 291  0.0   0.2-
080309 474  0.2+  0.5+    080311 E12  0.2+  0.3-    080328 291  0.2-  0.2-
080309 474  0.7-  0.3-    080311 E12  0.0   0.1-    080328 291  0.2-  0.0
080309 474  0.4+  0.9-    080312 703  0.5-  0.8+    080328 291  0.2-  0.2-
080309 E12  0.0   0.0     080312 703  0.1-  0.2+    080328 291  0.3-  0.1-
080309 E12  0.1+  0.1-    080312 703  0.5-  0.1-    080330 691  0.2-  0.1-
080309 E12  0.1+  0.1+    080312 703  0.6-  0.1-    080330 691  0.3-  0.1-
080309 E12  0.1+  0.1-    080313 130  0.2+  0.2+    080330 691  0.4-  0.1+
080309 E12  0.1+  0.1+    080313 130  0.2-  0.4-    080330 291  0.3+  0.5-
080309 246  0.9+  1.5-    080313 130  0.1-  0.4+    080330 291  0.2+  0.9-
080309 246  0.0   0.6-    080313 130  0.0   0.0     080330 291  0.4+  0.7-
080309 246  0.1+  0.2-    080314 204  0.0   0.4-    080401 691  0.6-  0.9-
080309 246  0.2-  1.2-    080314 204  0.2+  0.5-    080401 691  0.4-  0.2+
080309 246  0.2-  0.7-    080314 204  0.4+  0.0     080401 691  0.2-  0.2-
080309 246  0.0   0.4+    080314 H51  0.6+  1.3+    080413 G96 (0.8+  2.3+)
080310 703  0.1-  0.8+    080314 H51  0.6-  0.7+    080413 G96  0.2-  1.2+
080310 703  0.3+  0.0     080314 H51  0.8-  0.8+    080413 G96 (0.5+  1.7+)
080310 703  0.2-  0.1-    080314 H51  0.2-  0.3+    080413 G96  0.6-  0.8+
080310 703  0.8+  2.2+    080314 H51  0.4-  0.2+    240801 F52  0.0   0.0
080310 854  0.0   0.2+    080315 704  0.0   0.5-    240801 F52  0.1-  0.4-
080310 854  0.3+  0.2-    080315 704  0.1-  0.3-    240801 F52  0.2+  0.1+
080310 854  0.3-  0.6+    080315 704  0.5+  0.1+    240802 H21  0.0   0.4+
080310 474  0.0   0.2-    080315 704  0.2+  0.6-    240802 H21  0.1-  0.1+
080310 474  0.3+  0.4-    080315 704  0.2+  0.5-    240802 H21  0.0   0.1-
080310 474  0.0   0.6-    080324 H55  0.0   0.1-

Ephemeris:
2008 EE9                 a,e,i = 1.32, 0.53, 10                  q = 0.6256
Date    TT    R. A. (2000) Decl.     Delta      r    Elong.  Phase     V
2024 07 03    22 14 39.7 +10 34 01   0.6200  1.4280   119.5    38.3    23.6
...
2024 07 18    22 35 44.0 +17 01 54   0.4379  1.3140   124.3    39.7    22.7
...
2024 07 26    22 50 19.1 +21 46 32   0.3485  1.2490   125.1    41.7    22.1
...
2024 08 01    23 05 18.9 +26 29 19   0.2855  1.1983   124.0    44.6    21.7
2024 08 02    23 08 24.0 +27 24 56   0.2754  1.1897   123.6    45.3    21.6
2024 08 03    23 11 43.0 +28 23 34   0.2654  1.1810   123.2    46.0    21.5
...
2024 08 09    23 38 54.6 +35 35 24   0.2089  1.1284   118.4    52.2    21.1
...
2024 08 17    01 03 53.2 +49 51 25   0.1476  1.0562   103.3    68.9    20.7
...
2024 09 01    07 54 39.6 +38 13 59   0.1465  0.9176    47.9   125.3    23.2

A. U. Tomatic                (C) Copyright 2024 MPC           M.P.E.C. 2024-P22





More information about the Iaude mailing list